Find Starlink 36262

NORAD ID: 67201 Int'l Des: 2025-304 Owner: SPXS Country: US Constellation: starlink operational
LEOCIRCULAR

Live Position

Loading 3D Globe...

About Starlink 36262

Description loading...

Upcoming Passes

Passes for default location (London). Set your location on the main map for personalized predictions.

Altitude History

Loading altitude history...

Two-Line Element Set

1 67201U 25304K 26107.16214763 .00002166 00000-0 18926-3 0 9990
2 67201 70.0012 77.6083 0002801 272.6038 87.4801 14.98338502 19649
Epoch: Apr 17, 2026 • Age: 11 hours

Current Status

Altitude 592.0 km
Velocity 7.56 km/s
Sub-Earth Point -57.73°S, 133.12°W
Launch Date Dec 17, 2025
Age 0.3 years
Type internet

Technical Details

Classification Payload
Mass 575.00 kg
Dry Mass 530.00 kg
Total Mass 575.00 kg
Length 0.30 m
Diameter 4.10 m
Span 29.00 m
Shape Box + pan
Manufacturer SPXS
Bus Type Starlink V2MO
Phase Status In Orbit
Owner/State SPXS/US

Most Searched